Regional Weather Roundup
Issued by NWS

Home | Current Version | Previous Version | Graphics & Text | Print | Product List | Glossary On
Versions: 1 2 3 4 5 6 7 8 9 10 11 12 13 14 15 16 17 18 19 20 21 22 23 24 25 26 27 28 29 30 31 32 33 34 35 36 37 38 39 40 41 42 43 44 45 46 47 48 49 50
000
ASUS43 KMPX 260201
RWRMN
WEATHER ROUNDUP FOR MINNESOTA
NATIONAL WEATHER SERVICE TWIN CITIES/CHANHASSEN MN
900 PM CDT THU MAY 25 2017


NOTE: "FAIR" INDICATES FEW OR NO CLOUDS BELOW 12,000 FEET WITH NO
SIGNIFICANT WEATHER AND/OR OBSTRUCTIONS TO VISIBILITY. N/A MEANS
CURRENT SKY AND/OR WEATHER CONDITIONS ARE NOT AVAILABLE.

MNZ060>063-068>070-260300-
   Twin Cities Metro

CITY           SKY/WX    TMP DP  RH WIND       PRES   REMARKS
TWIN CITIES    CLOUDY    66  50  56 SE7       29.66S
ST PAUL        CLOUDY    65  53  65 SE7       29.67S
CRYSTAL        CLOUDY    66  47  50 SE7       29.64S
BLAINE         MOCLDY    68  52  56 SE5       29.66R
LAKEVILLE      MOCLDY    64  52  63 SE3       29.67R
EDEN PRAIRIE   CLOUDY    66  50  56 SE8       29.65S
SOUTH ST PAUL  CLOUDY    66  50  56 SE3       29.67R
LAKE ELMO      FAIR      64  54  68 SE5       29.68S
$$
MNZ001>005-007-008-013>017-022>024-027-028-260300-
   Northwest Minnesota

CITY           SKY/WX    TMP DP  RH WIND       PRES   REMARKS
BEMIDJI        CLOUDY    59  49  70 SE8       29.61S
HALLOCK        MOCLDY    64  48  55 SE17      29.50S
ROSEAU         CLOUDY    63  50  63 S14       29.58R
WARROAD        CLOUDY    63  50  63 SE10      29.59R
CROOKSTON      CLOUDY    64  48  55 S15       29.54R
FOSSTON        CLOUDY    61  46  59 SE10G16   29.58R
DETROIT LAKES  CLOUDY    61  50  67 SE14G21   29.59R
MOORHEAD       CLOUDY    66  52  59 S17G23    29.55R
PARK RAPIDS    LGT RAIN  62  47  57 SE13      29.61R
MAHNOMEN       CLOUDY    62  48  61 SE13      29.56R
$$
MNZ006-009>011-018-025>026-260300-
   North Central Minnesota

CITY           SKY/WX    TMP DP  RH WIND       PRES   REMARKS
BAUDETTE       CLOUDY    61  47  59 SE9       29.61R
FLAG ISLAND    CLOUDY    57  52  82 S12       29.58R
INTL FALLS     CLOUDY    61  46  57 SE5       29.65R
WASKISH        CLOUDY    61  50  67 SE3       29.62S
BIG FORK       CLOUDY    63  48  59 SE5       29.65S
LONGVILLE      CLOUDY    61  48  63 CALM      29.64S
GRAND RAPIDS   CLOUDY    60  48  64 SE8       29.68R
CRANE LAKE     CLOUDY    57  48  72 CALM      29.69R
ORR            MOCLDY    61  45  55 SE5       29.65R
COOK           MOCLDY    63  46  55 SE8       29.68S
WALKER         CLOUDY    58  49  71 SE5       29.62S
$$
MNZ012-019>021-037-260300-
   Northeast Minnesota

CITY           SKY/WX    TMP DP  RH WIND       PRES   REMARKS
DULUTH         CLOUDY    56  44  64 E10       29.70R
ELY            CLOUDY    57  45  62 SE8       29.71R
HIBBING        CLOUDY    58  45  62 SE9       29.68R
EVELETH        MOCLDY    58  40  51 SE5       29.71R
DULUTH HARBOR  CLOUDY    46  43  87 E6        29.73R
TWO HARBORS    CLOUDY    55  46  71 E5        29.70S
SILVER BAY     PTCLDY    54  43  66 N3        29.71S
GRAND MARAIS     N/A     50  43  77 NE3       29.72S
G MARAIS ARPRT CLEAR     55  37  50 E5        29.76R
$$
MNZ029>031-032-039>041-046>048-054>057-064-260300-
   West Central Minnesota

CITY           SKY/WX    TMP DP  RH WIND       PRES   REMARKS
FERGUS FALLS   CLOUDY    63  52  67 SE14      29.55S
WHEATON        MOCLDY    63  54  72 SE9       29.58R
MORRIS         CLOUDY    63  54  72 S12       29.58R
ALEXANDRIA     CLOUDY    60  52  74 SE10      29.62R
ELBOW LAKE     CLOUDY    61  53  73 E10       29.59R
WADENA         RAIN      59  52  77 SE8       29.61R
GLENWOOD       CLOUDY    61  54  77 SE10      29.63R
APPLETON       CLOUDY    63  54  72 SE3       29.59R
BENSON         CLOUDY    63  54  72 S6        29.62R
ORTONVILLE     CLOUDY    61  54  77 S5        29.58R
MADISON        PTCLDY    63  57  82 SE5       29.59R
WILLMAR        FAIR      63  54  72 SE9       29.63R
$$
MNZ033>034-036-042>043-049>051-058-059-260300-
   Central Minnesota

CITY           SKY/WX    TMP DP  RH WIND       PRES   REMARKS
ST CLOUD       LGT RAIN  63  52  67 SE8       29.63S
SAUK CENTRE    LGT RAIN  59  53  80 SE8       29.63R
PAYNESVILLE    CLOUDY    60  53  76 SE5       29.63R
AITKIN         LGT RAIN  61  48  63 SE3       29.64R
PINE RIVER     LGT RAIN  59  52  77 SE3       29.68R
BRAINERD       LGT RAIN  58  55  90 SE5       29.65R
STAPLES        LGT RAIN  57  52  82 SE3       29.63R
LONG PRAIRIE   CLOUDY    59  52  77 E7        29.63R
LITTLE FALLS   DRIZZLE   59  52  77 E6        29.63S
LITCHFIELD     CLOUDY    64  55  72 SE6       29.64R
BUFFALO        RAIN      62  53  72 SE5       29.66R
MAPLE LAKE     RAIN      63  55  76 SE3       29.66R
HUTCHINSON     DRIZZLE   61  56  83 E12       29.63F
$$
MNZ037-044-045-052-053-260300-
   East Central Minnesota

CITY           SKY/WX    TMP DP  RH WIND       PRES   REMARKS
PRINCETON      CLOUDY    64  52  63 E3        29.65S
MORA           CLOUDY    63  50  63 SE3       29.67S
CAMBRIDGE      PTCLDY    66  52  59 SE5       29.64S
RUSH CITY      MOCLDY    62  51  67 CALM      29.67S
MOOSE LAKE     CLOUDY    52  43  71 NE3       29.68R
HINCKLEY       MOCLDY    64  52  63 SE3       29.67R
CLOQUET        CLOUDY    54  43  66 E7        29.69S
MCGREGOR       CLOUDY    55  45  67 E9        29.68R
$$
MNZ071>073-080-081-089-090-097-098-260300-
   Southwest Minnesota

CITY           SKY/WX    TMP DP  RH WIND       PRES   REMARKS
MONTEVIDEO     CLOUDY    63  55  77 S3        29.60R
CANBY          PTCLDY    62  56  79 CALM      29.60R
MARSHALL       CLOUDY    62  56  80 SE7       29.60R
REDWOOD FALLS  MOCLDY    64  51  62 SE16      29.59S
OLIVIA         CLOUDY    63  52  67 SE9       29.60R
PIPESTONE      MOCLDY    63  50  63 S7        29.61R
WINDOM         PTCLDY    64  52  63 SE12      29.63R
WORTHINGTON    PTCLDY    63  53  70 SE9       29.62S
JACKSON        CLOUDY    63  52  67 SE8       29.66R
TRACY          MOCLDY    64  56  73 S7        29.60R
SLAYTON        PTCLDY    62  53  72 SE9       29.62R
$$
MNZ065>067-074>077-082>085-091>093-260300-
   South Central Minnesota

CITY           SKY/WX    TMP DP  RH WIND       PRES   REMARKS
MANKATO        LGT RAIN  63  53  70 SE9       29.66R
NEW ULM        CLOUDY    63  50  63 SE10      29.63S
ST JAMES       CLOUDY    64  52  63 SE13      29.65R
FAIRMONT       CLOUDY    62  52  69 SE9       29.66R
GLENCOE        DRIZZLE   64  57  79 SE7       29.64S
FARIBAULT      CLOUDY    64  54  68 SE6       29.67S
OWATONNA       LGT RAIN  63  54  72 SE6       29.67S
WASECA         CLOUDY    63  52  67 SE6       29.68R
ALBERT LEA     RAIN      63  55  77 SE3       29.67S
$$
MNZ078>079-086>088-094>096-260300-
   Southeast Minnesota

CITY           SKY/WX    TMP DP  RH WIND       PRES   REMARKS
ROCHESTER      PTCLDY    61  55  81 SE5       29.70R
RED WING       PTCLDY    63  52  67 CALM      29.68R
STANTON        CLOUDY    66  52  59 E5        29.66S
DODGE CENTER   CLOUDY    63  54  72 SE6       29.69S
WINONA         CLEAR     61  52  72 CALM      29.70R
AUSTIN         CLOUDY    63  54  72 SE3       29.68R
PRESTON        LGT RAIN  62  52  70 CALM      29.71R
$$
ABBREVIATIONS USED IN REMARKS
   TC - TEMPERATURES IN CELSIUS
  WCI - WIND CHILL INDEX
   HX - HEAT INDEX
  VSB - VISIBILITY
$$



USA.gov is the U.S. government's official web portal to all federal, state and local government web resources and services.